[[{"header":{"parameterUnit":"m.s-1","parameterCategory":1,"la1":30.2991,"la2":30.254,"lo1":-89.0895,"lo2":-89.0444,"dy":0.0017,"dx":0.0017,"nx":28,"ny":28,"refTime":"2024-10-05T21:00:00:Z","depth":0,"parameterNumber":2,"parameterNumberName":"U-component_of_WINDS"},"data":[0,0,0,0,0,0,0,0,0,0,0,0,0,0,0,0,0,0,0,0,0,0,0,0,0,0,0,0,0,0,0,0,0,0,0,0,0,0,0,0,0,0,0,0,0,0,0,0,0,0,0,0,0,0,0,0,0,0,-5.2308,-5.2307,0,-5.2207,-5.2206,-5.2205,-5.2062,-5.2059,-5.2057,-5.2055,-5.1952,-5.1952,-5.1952,0,0,0,0,0,0,0,0,0,0,0,0,0,-5.2381,-5.238,-5.2308,-5.2307,-5.2306,-5.2207,-5.2206,-5.2205,-5.2062,-5.2059,-5.2056,-5.2053,-5.1953,-5.1952,-5.1952,0,0,0,0,0,0,0,0,0,0,0,0,0,-5.2322,-5.238,-5.2308,-5.2223,-5.2214,-5.2208,-5.2206,-5.2204,-5.2063,-5.2059,-5.2055,-5.2052,-5.1953,-5.1952,-5.1951,-5.2021,0,0,-5.1949,-5.1949,0,0,0,0,0,0,0,0,-5.2325,-5.2319,-5.2237,-5.2229,-5.2219,-5.2143,-5.2194,-5.2143,-5.2064,-5.212,-5.2055,-5.205,-5.2019,-5.2013,-5.2002,-5.2016,-5.2012,-5.1949,-5.1949,-5.1949,-5.1949,0,0,0,0,0,0,0,-5.2329,-5.2323,-5.2268,-5.2236,-5.2225,-5.219,-5.2178,-5.2184,-5.2092,-5.2115,-5.2104,-5.2094,-5.2013,-5.2003,-5.1998,-5.201,-5.1949,-5.1949,-5.1948,-5.1948,-5.208,-5.2083,0,0,0,0,0,0,-5.2346,-5.2327,-5.2271,-5.2265,-5.2264,-5.2192,-5.2178,-5.2171,-5.2091,-5.2075,-5.2098,-5.2088,-5.2006,-5.1999,-5.1994,-5.2072,-5.1949,-5.1948,-5.1948,-5.2076,-5.2081,-5.2085,0,0,0,0,0,0,-5.2348,-5.2342,-5.2275,-5.2293,-5.2282,-5.2195,-5.2188,-5.2171,-5.216,-5.2078,-5.2061,-5.2104,-5.2003,-5.1995,-5.2016,-5.2066,-5.1948,-5.1947,-5.2071,-5.2077,-5.2083,-5.2228,0,0,0,0,0,0,-5.2351,-5.2344,-5.2368,-5.2295,-5.2282,-5.2298,-5.2191,-5.2172,-5.2159,-5.2146,-5.2079,-5.2064,-5.1999,-5.2018,-5.2015,-5.2063,-5.1947,-5.2066,-5.2074,-5.2081,-5.2218,-5.2238,-5.2255,0,0,0,0,0,-5.2354,-5.2413,-5.237,-5.2365,-5.2311,-5.2302,-5.2294,-5.2217,-5.2164,-5.2189,-5.2136,-5.2066,-5.2062,-5.2021,-5.2017,-5.2066,-5.2063,-5.2072,-5.208,-5.221,-5.2234,-5.2254,0,0,0,0,0,0,-5.2495,-5.2402,-5.2353,-5.239,-5.2355,-5.2277,-5.2306,-5.2245,-5.2224,-5.2213,-5.2119,-5.2105,-5.2138,-5.2104,-5.2061,-5.213,-5.2052,-5.206,-5.2152,-5.2174,-5.2192,-5.22,-5.1946,0,0,0,0,0,-5.253,-5.253,-5.2449,-5.2489,-5.2474,-5.2394,-5.2387,-5.2331,-5.2291,-5.2275,-5.2224,-5.2188,-5.2179,-5.2174,-5.216,-5.2213,-5.2197,-5.2244,-5.2263,-5.2278,-5.2287,-5.2314,-5.2335,-5.2114,-5.2113,-5.2113,0,0,-5.2603,-5.2552,-5.2558,-5.2517,-5.2482,-5.2486,-5.2382,-5.2389,-5.2391,-5.2276,-5.2293,-5.2255,-5.2209,-5.2247,-5.226,-5.2219,-5.2345,-5.2289,-5.2302,-5.2302,-5.2325,-5.2346,-5.2365,-5.2119,-5.2118,-5.2117,0,0,-5.2738,-5.2699,-5.2729,-5.2698,-5.2648,-5.2595,-5.2603,-5.2535,-5.2505,-5.252,-5.2436,-5.2437,-5.2422,-5.2393,-5.2377,-5.2505,-5.244,-5.2503,-5.2599,-5.2626,-5.2644,-5.2659,-5.2706,-5.2724,-5.2511,-5.2512,-5.2512,0,-5.2835,-5.2835,-5.2753,-5.2766,-5.2751,-5.2649,-5.268,-5.2654,-5.2602,-5.2595,-5.2549,-5.253,-5.2492,-5.2522,-5.2554,-5.2543,-5.2551,-5.251,-5.2648,-5.2662,-5.2675,-5.2719,-5.2737,-5.252,-5.2519,-5.2518,-5.2517,0,-5.2958,-5.2961,-5.2991,-5.2945,-5.2934,-5.2956,-5.2878,-5.2877,-5.2824,-5.2776,-5.2795,-5.2745,-5.2721,-5.2724,-5.2671,-5.2748,-5.2724,-5.2665,-5.2584,-5.2706,-5.2745,-5.2762,-5.2531,-5.2529,-5.2526,-5.2524,0,0,-5.3177,-5.3087,-5.31,-5.3079,-5.3018,-5.3018,-5.3037,-5.3013,-5.3015,-5.2984,-5.2999,-5.299,-5.2935,-5.2917,-5.286,-5.2885,-5.2992,-5.2822,-5.282,-5.2857,-5.3076,-5.3122,-5.3143,-5.2949,-5.2952,-5.2954,-5.308,0,-5.3301,-5.3327,-5.3255,-5.33,-5.3302,-5.3206,-5.3223,-5.3188,-5.3145,-5.3141,-5.3093,-5.3089,-5.3016,-5.3005,-5.3024,-5.2975,-5.3035,-5.2964,-5.2963,-5.2964,-5.2978,-5.3163,-5.3211,-5.3332,-5.3095,-5.3098,-5.31,0,-5.3448,-5.3426,-5.3471,-5.341,-5.3408,-5.3424,-5.3398,-5.3396,-5.3356,-5.3322,-5.3304,-5.3238,-5.3254,-5.3177,-5.3199,-5.3153,-5.3148,-5.3124,-5.3127,-5.3124,-5.3039,-5.3166,-5.3369,-5.3388,-5.3123,-5.3121,-5.3119,0,-5.3605,-5.3586,-5.3612,-5.3596,-5.3525,-5.3539,-5.351,-5.3466,-5.3458,-5.3436,-5.343,-5.341,-5.34,-5.3387,-5.3319,-5.3268,-5.3349,-5.3266,-5.3323,-5.3326,-5.3345,-5.3344,-5.355,-5.3341,-5.3341,-5.334,-5.334,0,-5.3751,-5.3783,-5.3682,-5.3697,-5.3731,-5.3649,-5.3685,-5.3646,-5.3609,-5.3617,-5.3532,-5.3542,-5.3451,-5.3451,-5.3398,-5.3425,-5.342,-5.3395,-5.3381,-5.3403,-5.3407,-5.3399,-5.3389,-5.3345,-5.3344,-5.3343,-5.3342,0,-5.3932,-5.3865,-5.3887,-5.3818,-5.3802,-5.383,-5.3772,-5.3785,-5.3737,-5.3748,-5.3746,-5.3671,-5.3667,-5.3598,-5.3579,-5.3543,-5.3592,-5.3562,-5.3606,-5.3597,-5.3659,-5.3655,-5.3867,-5.3892,-5.3667,-5.3669,-5.3671,0,-5.403,-5.4052,-5.3987,-5.3986,-5.3962,-5.3961,-5.3953,-5.3873,-5.3868,-5.3826,-5.3844,-5.3833,-5.382,-5.3818,-5.3763,-5.3749,-5.3717,-5.3793,-5.3715,-5.3737,-5.372,-5.372,-5.3723,-5.381,-5.3813,-5.3815,-5.3817,0,-5.4211,-5.4177,-5.4168,-5.4148,-5.414,-5.4121,-5.4096,-5.4101,-5.4014,-5.4012,-5.4007,-5.3998,-5.3979,-5.397,-5.3946,-5.3917,-5.3854,-5.3843,-5.3855,-5.3878,-5.3904,-5.3893,-5.3653,-5.3838,-5.3836,-5.3834,-5.3833,-5.3832,-5.4353,-5.437,-5.4328,-5.4321,-5.4294,-5.4274,-5.4283,-5.4237,-5.4231,-5.421,-5.4164,-5.4167,-5.4128,-5.409,-5.4067,-5.4069,-5.403,-5.4049,-5.4053,-5.4059,-5.4073,-5.3904,-5.4064,-5.4064,-5.4063,-5.4062,-5.4062,0,-5.4531,-5.45,-5.4494,-5.4463,-5.4459,-5.4399,-5.437,-5.437,-5.4374,-5.4343,-5.4333,-5.4329,-5.432,-5.4265,-5.4251,-5.4264,-5.4235,-5.4263,-5.4261,-5.4256,-5.4107,-5.4098,-5.4287,-5.4287,-5.4287,-5.4287,-5.4287,-5.4287,-5.4623,-5.4649,-5.4611,-5.4624,-5.4592,-5.4594,-5.4583,-5.4564,-5.454,-5.4539,-5.4532,-5.4496,-5.4456,-5.4439,-5.443,-5.4414,-5.4413,-5.4452,-5.4427,-5.4288,-5.4266,-5.4246,-5.4237,-5.4452,-5.4452,-5.4575,-5.4577,-5.4577]},{"header":{"parameterUnit":"m.s-1","parameterCategory":1,"la1":30.2991,"la2":30.254,"lo1":-89.0895,"lo2":-89.0444,"dy":0.0017,"dx":0.0017,"nx":28,"ny":28,"refTime":"2024-10-05T21:00:00:Z","depth":0,"parameterNumber":3,"parameterNumberName":"V-component_of_WINDS"},"data":[0,0,0,0,0,0,0,0,0,0,0,0,0,0,0,0,0,0,0,0,0,0,0,0,0,0,0,0,0,0,0,0,0,0,0,0,0,0,0,0,0,0,0,0,0,0,0,0,0,0,0,0,0,0,0,0,0,0,-1.7161,-1.7161,0,-1.7188,-1.7188,-1.7188,-1.7142,-1.714,-1.7138,-1.7137,-1.7168,-1.717,-1.7172,0,0,0,0,0,0,0,0,0,0,0,0,0,-1.7073,-1.7075,-1.7161,-1.7161,-1.7162,-1.7188,-1.7188,-1.7188,-1.7142,-1.714,-1.7138,-1.7136,-1.7167,-1.717,-1.7173,0,0,0,0,0,0,0,0,0,0,0,0,0,-1.7107,-1.7075,-1.7161,-1.7141,-1.714,-1.7188,-1.7188,-1.7189,-1.7142,-1.714,-1.7137,-1.7135,-1.7166,-1.7169,-1.7173,-1.7242,0,0,-1.7183,-1.7185,0,0,0,0,0,0,0,0,-1.7105,-1.711,-1.7144,-1.7143,-1.7141,-1.7159,-1.7168,-1.7207,-1.7143,-1.7142,-1.7137,-1.7134,-1.7167,-1.717,-1.7181,-1.7243,-1.7245,-1.7184,-1.7186,-1.7187,-1.7188,0,0,0,0,0,0,0,-1.7103,-1.7109,-1.7172,-1.7145,-1.7143,-1.7132,-1.7135,-1.7175,-1.7167,-1.7141,-1.7138,-1.7142,-1.7166,-1.7177,-1.7181,-1.7245,-1.7184,-1.7187,-1.7189,-1.719,-1.7368,-1.737,0,0,0,0,0,0,-1.7102,-1.7107,-1.7171,-1.7172,-1.7117,-1.7136,-1.7138,-1.7156,-1.7167,-1.7166,-1.7144,-1.7139,-1.7173,-1.7177,-1.7182,-1.7265,-1.7187,-1.7191,-1.7193,-1.7365,-1.7368,-1.7371,0,0,0,0,0,0,-1.71,-1.7108,-1.717,-1.7139,-1.7146,-1.714,-1.716,-1.7157,-1.7169,-1.7168,-1.7167,-1.7157,-1.7171,-1.7177,-1.7227,-1.7266,-1.7192,-1.7195,-1.7362,-1.7366,-1.737,-1.7431,0,0,0,0,0,0,-1.7098,-1.7108,-1.7133,-1.714,-1.7148,-1.7214,-1.7162,-1.716,-1.7175,-1.7169,-1.718,-1.718,-1.7169,-1.7223,-1.7231,-1.7269,-1.7198,-1.7359,-1.7364,-1.7368,-1.7426,-1.7437,-1.7446,0,0,0,0,0,-1.7095,-1.715,-1.7135,-1.7143,-1.7179,-1.7216,-1.7221,-1.7207,-1.7178,-1.7204,-1.7204,-1.718,-1.7259,-1.7228,-1.7237,-1.7277,-1.7356,-1.7362,-1.7368,-1.7421,-1.7435,-1.7446,0,0,0,0,0,0,-1.7149,-1.715,-1.7134,-1.7192,-1.7204,-1.7208,-1.7241,-1.7221,-1.7243,-1.7237,-1.7219,-1.7222,-1.7277,-1.7281,-1.7247,-1.7345,-1.7303,-1.7311,-1.7341,-1.7353,-1.7363,-1.7362,-1.7201,0,0,0,0,0,-1.7168,-1.7197,-1.7197,-1.7248,-1.7255,-1.7247,-1.7263,-1.7251,-1.7263,-1.7269,-1.7272,-1.7286,-1.7314,-1.7334,-1.7359,-1.7425,-1.7429,-1.7457,-1.7467,-1.7476,-1.7484,-1.7521,-1.7535,-1.7391,-1.7391,-1.7391,0,0,-1.7207,-1.7211,-1.7231,-1.7259,-1.7267,-1.73,-1.7252,-1.7287,-1.7312,-1.7274,-1.7323,-1.7325,-1.734,-1.7399,-1.7425,-1.7405,-1.7524,-1.7483,-1.749,-1.7494,-1.7529,-1.7542,-1.7554,-1.7395,-1.7394,-1.7393,0,0,-1.7295,-1.73,-1.7345,-1.7353,-1.7366,-1.736,-1.7371,-1.7378,-1.7378,-1.7426,-1.7399,-1.7428,-1.7476,-1.7489,-1.7501,-1.7594,-1.7573,-1.7603,-1.7657,-1.7694,-1.7705,-1.7715,-1.7751,-1.7763,-1.761,-1.761,-1.761,0,-1.7343,-1.7389,-1.737,-1.7408,-1.7422,-1.7388,-1.7434,-1.7444,-1.7465,-1.7476,-1.7452,-1.7513,-1.752,-1.7583,-1.7605,-1.7616,-1.7629,-1.7603,-1.7705,-1.7714,-1.7724,-1.7757,-1.7771,-1.7614,-1.7613,-1.7613,-1.7613,0,-1.7448,-1.748,-1.7515,-1.7535,-1.7553,-1.7595,-1.7584,-1.7604,-1.759,-1.7587,-1.7637,-1.7644,-1.7672,-1.7685,-1.7672,-1.7747,-1.7734,-1.7707,-1.7665,-1.7741,-1.7773,-1.7786,-1.7619,-1.7618,-1.7617,-1.7616,0,0,-1.7573,-1.7582,-1.7595,-1.7605,-1.7616,-1.7641,-1.7682,-1.7708,-1.7727,-1.7742,-1.7777,-1.7819,-1.7795,-1.7809,-1.7797,-1.7828,-1.7905,-1.7798,-1.7799,-1.782,-1.799,-1.8011,-1.8027,-1.789,-1.7892,-1.7894,-1.7989,0,-1.7662,-1.7732,-1.7716,-1.7785,-1.7816,-1.7784,-1.782,-1.7831,-1.783,-1.7856,-1.7855,-1.7886,-1.785,-1.7859,-1.7888,-1.7889,-1.7939,-1.7881,-1.7925,-1.7926,-1.7925,-1.8043,-1.8066,-1.8155,-1.8001,-1.8003,-1.8005,0,-1.7776,-1.7796,-1.7868,-1.7875,-1.7888,-1.792,-1.7943,-1.7968,-1.7981,-1.7978,-1.7994,-1.7976,-1.8017,-1.7973,-1.8031,-1.7993,-1.8009,-1.8012,-1.8015,-1.8021,-1.7972,-1.8055,-1.8183,-1.8198,-1.8023,-1.8022,-1.8021,0,-1.7864,-1.7907,-1.7957,-1.7965,-1.7974,-1.7998,-1.8003,-1.8013,-1.8031,-1.8051,-1.8062,-1.8087,-1.8102,-1.8122,-1.8112,-1.808,-1.8174,-1.8128,-1.8174,-1.8175,-1.8198,-1.8197,-1.8334,-1.8204,-1.8203,-1.8203,-1.8203,0,-1.7967,-1.8013,-1.7996,-1.8027,-1.8078,-1.806,-1.8111,-1.8112,-1.8122,-1.8153,-1.8126,-1.8157,-1.814,-1.8169,-1.8161,-1.8213,-1.8219,-1.8219,-1.8217,-1.8223,-1.8223,-1.8236,-1.823,-1.8207,-1.8206,-1.8205,-1.8205,0,-1.8075,-1.8065,-1.8117,-1.8121,-1.8123,-1.8161,-1.8165,-1.8194,-1.8189,-1.823,-1.8238,-1.8232,-1.8265,-1.8256,-1.8292,-1.8287,-1.8353,-1.8341,-1.8349,-1.8347,-1.8395,-1.8392,-1.8547,-1.8568,-1.8421,-1.8423,-1.8424,0,-1.8143,-1.8178,-1.8185,-1.8204,-1.8211,-1.8241,-1.8258,-1.8241,-1.826,-1.8278,-1.8306,-1.8336,-1.836,-1.8415,-1.8415,-1.8443,-1.8434,-1.8486,-1.8438,-1.8443,-1.8438,-1.8437,-1.8442,-1.8497,-1.8498,-1.85,-1.8501,0,-1.8266,-1.8259,-1.8284,-1.8308,-1.8329,-1.8348,-1.8363,-1.838,-1.8365,-1.8388,-1.8421,-1.8439,-1.8476,-1.8508,-1.8533,-1.854,-1.8519,-1.8515,-1.8528,-1.8537,-1.8541,-1.8542,-1.8378,-1.8513,-1.8512,-1.8511,-1.851,-1.851,-1.8358,-1.8388,-1.8398,-1.8427,-1.8437,-1.8453,-1.8481,-1.848,-1.8507,-1.8535,-1.8523,-1.8562,-1.8575,-1.8607,-1.8617,-1.8648,-1.8628,-1.8646,-1.8651,-1.8657,-1.8664,-1.8533,-1.8652,-1.8652,-1.8651,-1.8651,-1.8651,0,-1.8482,-1.8486,-1.8513,-1.8536,-1.856,-1.8536,-1.8552,-1.8574,-1.8608,-1.8621,-1.8645,-1.8684,-1.8715,-1.8716,-1.8745,-1.877,-1.8761,-1.8779,-1.8778,-1.8781,-1.8678,-1.8666,-1.8785,-1.8785,-1.8785,-1.8785,-1.8785,-1.8785,-1.8549,-1.8599,-1.8594,-1.8649,-1.8654,-1.8691,-1.8703,-1.8718,-1.8728,-1.8773,-1.8798,-1.8798,-1.8807,-1.8837,-1.8864,-1.8864,-1.8877,-1.8899,-1.8896,-1.8801,-1.8787,-1.8775,-1.8763,-1.8901,-1.8901,-1.8995,-1.8996,-1.8997]}]]